EW9479 Weather Reports


time (UTC)temp
C
wind
direction
speed
KPH
gust
KPH
rain 1hr
cm
rain 24hr
cm
rain mn
cm
humidity
%
barometer
mb
20260906051609 25 0 0.0 0.0 0.00 0.00 0.00 84 1013.6
20260906050054 25 0 0.0 0.0 0.00 0.00 0.00 83 1013.6
20260906044552 25 0 0.0 0.0 0.00 0.00 0.00 83 1013.6
20260906043046 25 0 0.0 0.0 0.00 0.00 0.00 82 1013.5
20260906041553 25 0 0.0 0.0 0.00 0.00 0.00 81 1013.4
20260906040125 26 0 0.0 0.0 0.00 0.00 0.00 79 1013.4
20260906034555 26 0 0.0 0.0 0.00 0.00 0.00 78 1013.3
20260906033101 26 0 0.0 0.0 0.00 0.00 0.00 77 1013.3
20260906031550 26 210 0.0 1.6 0.00 0.00 0.00 77 1013.2
20260906030047 27 210 0.0 1.6 0.00 0.00 0.00 77 1013.2
20260906024559 27 0 0.0 1.6 0.00 0.00 0.00 75 1013.1
20260906023101 27 0 0.0 1.6 0.00 0.00 0.00 75 1013.1
20260906021550 27 108 0.0 1.6 0.00 0.00 0.00 75 1013.0
20260906020052 27 0 0.0 0.0 0.00 0.00 0.00 75 1012.9
20260906014554 28 0 0.0 0.0 0.00 0.00 0.00 72 1012.9
20260906013053 28 0 0.0 0.0 0.00 0.00 0.00 71 1012.8
20260906011553 29 0 0.0 1.6 0.00 0.00 0.00 71 1012.5
20260906010045 30 0 0.0 0.0 0.00 0.00 0.00 69 1012.2
20260906004550 30 0 0.0 0.0 0.00 0.00 0.00 66 1012.0
20260906003044 31 0 0.0 0.0 0.00 0.00 0.00 64 1011.9
20260906001546 32 0 0.0 0.0 0.00 0.00 0.00 59 1012.0
20260906000053 34 0 0.0 0.0 0.00 0.00 0.00 58 1012.0
20260905234547 35 0 0.0 0.0 0.00 0.00 0.00 55 1012.2
20260905233055 35 0 0.0 1.6 0.00 0.00 0.00 53 1012.2
20260905231546 35 0 0.0 3.2 0.00 0.00 0.00 51 1012.2
20260905230045 36 83 0.0 4.8 0.00 0.00 0.00 51 1012.3
20260905224610 36 0 0.0 4.8 0.00 0.00 0.00 49 1012.2
20260905223048 37 49 1.6 6.4 0.00 0.00 0.00 48 1012.2
20260905221552 37 87 1.6 8.0 0.00 0.00 0.00 49 1012.3
20260905220044 37 79 3.2 9.7 0.00 0.00 0.00 48 1012.4
20260905214551 37 5 1.6 8.0 0.00 0.00 0.00 49 1012.3
20260905213044 37 91 1.6 11.3 0.00 0.00 0.00 50 1012.5
20260905211549 36 8 1.6 16.1 0.00 0.00 0.00 51 1012.5
20260905210053 37 67 6.4 14.5 0.00 0.00 0.00 48 1012.5
20260905204553 37 44 1.6 4.8 0.00 0.00 0.00 45 1012.6
20260905203047 38 352 1.6 6.4 0.00 0.00 0.00 42 1012.9
20260905201548 38 21 3.2 9.7 0.00 0.00 0.00 44 1013.2
20260905200046 38 66 1.6 8.0 0.00 0.00 0.00 44 1013.4
20260905194551 37 106 3.2 9.7 0.00 0.00 0.00 46 1013.6
20260905193044 37 70 3.2 8.0 0.00 0.00 0.00 46 1013.8
20260905191546 37 153 3.2 12.9 0.00 0.00 0.00 46 1013.9
20260905190052 37 84 6.4 14.5 0.00 0.00 0.00 48 1014.1
20260905184558 37 104 3.2 14.5 0.00 0.00 0.00 45 1014.4
20260905183047 37 342 0.0 9.7 0.00 0.00 0.00 47 1014.5
20260905181554 37 309 3.2 9.7 0.00 0.00 0.00 48 1014.5
20260905174546 36 39 4.8 12.9 0.00 0.00 0.00 49 1014.7
20260905173103 36 36 3.2 14.5 0.00 0.00 0.00 50 1014.8
20260905171555 35 119 1.6 8.0 0.00 0.00 0.00 52 1015.1
20260905164546 35 83 3.2 12.9 0.00 0.00 0.00 58 1015.6
20260905163054 35 77 3.2 8.0 0.00 0.00 0.00 57 1015.7
20260905161601 34 345 1.6 8.0 0.00 0.00 0.00 60 1015.8
20260905160049 34 57 3.2 6.4 0.00 0.00 0.00 59 1015.9
20260905154547 33 288 1.6 8.0 0.00 0.00 0.00 62 1015.9
20260905153045 33 212 0.0 9.7 0.00 0.00 0.00 61 1016.1
20260905151547 33 346 0.0 3.2 0.00 0.00 0.00 64 1016.1
20260905150048 32 162 1.6 6.4 0.00 0.00 0.00 66 1016.1
20260905144552 32 227 0.0 3.2 0.00 0.00 0.00 66 1016.0
20260905143047 32 162 1.6 3.2 0.00 0.00 0.00 69 1016.0
20260905141545 31 89 0.0 1.6 0.00 0.00 0.00 72 1016.0
20260905140053 30 0 0.0 3.2 0.00 0.00 0.00 74 1016.0
20260905134555 30 86 0.0 1.6 0.00 0.00 0.00 76 1015.9
20260905133045 28 0 0.0 1.6 0.00 0.00 0.00 79 1016.0
20260905131544 26 0 0.0 3.2 0.00 0.00 0.00 85 1016.1
20260905130052 24 0 0.0 1.6 0.00 0.00 0.00 91 1016.0
20260905124552 23 0 0.0 1.6 0.00 0.00 0.00 93 1016.1
20260905123057 23 0 0.0 0.0 0.00 0.00 0.00 93 1016.0
20260905121552 22 0 0.0 0.0 0.00 0.00 0.00 93 1015.9
20260905120057 22 0 0.0 0.0 0.00 0.00 0.00 92 1015.7
20260905114559 22 0 0.0 0.0 0.00 0.00 0.00 92 1015.6
20260905113047 22 0 0.0 0.0 0.00 0.00 0.00 92 1015.5
20260905111545 22 0 0.0 0.0 0.00 0.00 0.00 92 1015.5
20260905110051 22 0 0.0 0.0 0.00 0.00 0.00 92 1015.3
20260905104551 22 0 0.0 0.0 0.00 0.00 0.00 91 1015.1
20260905103057 22 0 0.0 0.0 0.00 0.00 0.00 91 1015.1
20260905101559 22 0 0.0 0.0 0.00 0.00 0.00 91 1015.1
20260905100114 22 0 0.0 0.0 0.00 0.00 0.00 91 1015.1
20260905094549 22 0 0.0 1.6 0.00 0.00 0.00 91 1015.1
20260905093045 22 0 0.0 0.0 0.00 0.00 0.00 90 1014.9
20260905091557 23 0 0.0 0.0 0.00 0.00 0.00 90 1014.8
20260905090045 23 0 0.0 0.0 0.00 0.00 0.00 90 1014.9
20260905084550 23 0 0.0 0.0 0.00 0.00 0.00 90 1014.8
20260905083104 23 0 0.0 0.0 0.00 0.00 0.00 89 1015.0
20260905081550 23 0 0.0 0.0 0.00 0.00 0.00 89 1015.1
20260905080045 23 0 0.0 0.0 0.00 0.00 0.00 89 1014.9
20260905074548 23 240 0.0 1.6 0.00 0.00 0.00 89 1014.9
20260905073056 23 0 0.0 0.0 0.00 0.00 0.00 89 1014.9
20260905071551 23 0 0.0 0.0 0.00 0.00 0.00 88 1014.9
20260905070051 23 0 0.0 0.0 0.00 0.00 0.00 88 1015.1
20260905064602 23 0 0.0 0.0 0.00 0.00 0.00 88 1015.0
20260905063054 23 0 0.0 0.0 0.00 0.00 0.00 88 1015.2
20260905061550 23 0 0.0 0.0 0.00 0.00 0.00 87 1015.2
20260905060047 24 0 0.0 0.0 0.00 0.00 0.00 87 1015.3
20260905054703 24 0 0.0 0.0 0.00 0.00 0.00 86 1015.3
20260905053047 24 0 0.0 0.0 0.00 0.00 0.00 87 1015.3